TimeCDT,TemperatureF,Dew PointF,Humidity,Sea Level PressureIn,VisibilityMPH,Wind Direction,Wind SpeedMPH,Gust SpeedMPH,PrecipitationIn,Events,Conditions,WindDirDegrees,DateUTC
12:53 AM,46.0,32.0,58,30.06,10.0,West,10.4,18.4,N/A,,Clear,270,2012-10-05 05:53:00
1:53 AM,45.0,32.0,60,30.07,10.0,West,10.4,-,N/A,,Clear,260,2012-10-05 06:53:00
3:53 AM,42.1,30.9,65,30.06,10.0,West,11.5,-,N/A,,Clear,280,2012-10-05 08:53:00
4:53 AM,41.0,30.0,65,30.08,10.0,West,9.2,-,N/A,,Clear,260,2012-10-05 09:53:00
5:53 AM,41.0,30.0,65,30.07,10.0,West,10.4,-,N/A,,Clear,270,2012-10-05 10:53:00
6:53 AM,39.9,28.9,65,30.07,10.0,West,11.5,-,N/A,,Clear,270,2012-10-05 11:53:00
7:53 AM,42.1,28.9,60,30.08,10.0,West,15.0,21.9,N/A,,Clear,270,2012-10-05 12:53:00
8:53 AM,45.0,30.0,56,30.07,10.0,West,19.6,26.5,N/A,,Clear,280,2012-10-05 13:53:00
9:53 AM,46.9,30.0,52,30.07,10.0,West,18.4,26.5,N/A,,Clear,270,2012-10-05 14:53:00
10:53 AM,50.0,30.0,46,30.05,10.0,West,16.1,23.0,N/A,,Clear,260,2012-10-05 15:53:00
11:53 AM,52.0,28.9,41,30.04,10.0,West,17.3,-,N/A,,Clear,270,2012-10-05 16:53:00
12:53 PM,53.1,28.9,40,30.03,10.0,West,16.1,21.9,N/A,,Clear,280,2012-10-05 17:53:00
1:53 PM,53.1,28.0,38,30.00,10.0,West,12.7,20.7,N/A,,Clear,280,2012-10-05 18:53:00
2:53 PM,52.0,28.0,40,29.99,10.0,West,13.8,-,N/A,,Clear,260,2012-10-05 19:53:00
3:53 PM,52.0,27.0,38,29.99,10.0,West,19.6,25.3,N/A,,Clear,260,2012-10-05 20:53:00
4:53 PM,50.0,25.0,38,30.00,10.0,West,18.4,23.0,N/A,,Clear,260,2012-10-05 21:53:00
5:53 PM,48.9,26.1,41,30.00,10.0,WSW,16.1,21.9,N/A,,Clear,250,2012-10-05 22:53:00
6:53 PM,48.0,25.0,41,30.01,10.0,WSW,12.7,20.7,N/A,,Clear,250,2012-10-05 23:53:00
7:53 PM,46.0,25.0,44,30.01,10.0,WSW,13.8,-,N/A,,Clear,250,2012-10-06 00:53:00
8:53 PM,45.0,25.0,46,29.99,10.0,WSW,11.5,-,N/A,,Mostly Cloudy,250,2012-10-06 01:53:00
9:53 PM,46.9,27.0,46,30.00,10.0,West,8.1,-,N/A,,Overcast,280,2012-10-06 02:53:00
10:53 PM,46.0,27.0,47,30.01,10.0,NW,16.1,21.9,N/A,,Overcast,310,2012-10-06 03:53:00
11:53 PM,44.1,25.0,47,30.01,10.0,WNW,10.4,20.7,N/A,,Overcast,290,2012-10-06 04:53:00